[[{"header":{"parameterUnit":"m.s-1","parameterCategory":1,"la1":30.2991,"la2":30.254,"lo1":-89.0895,"lo2":-89.0444,"dy":0.0017,"dx":0.0017,"nx":28,"ny":28,"refTime":"2023-10-20T21:00:00:Z","depth":0,"parameterNumber":2,"parameterNumberName":"U-component_of_WINDS"},"data":[0,0,0,0,0,0,0,0,0,0,0,0,0,0,0,0,0,0,0,0,0,0,0,0,0,0,0,0,0,0,0,0,0,0,0,0,0,0,0,0,0,0,0,0,0,0,0,0,0,0,0,0,0,0,0,0,0,0,3.1368,3.1368,0,3.1415,3.1415,3.1416,3.1453,3.1453,3.1454,3.1454,3.1503,3.1504,3.1505,0,0,0,0,0,0,0,0,0,0,0,0,0,3.1315,3.1316,3.1368,3.1368,3.1369,3.1414,3.1415,3.1416,3.1453,3.1453,3.1454,3.1454,3.1502,3.1504,3.1505,0,0,0,0,0,0,0,0,0,0,0,0,0,3.1347,3.1316,3.1367,3.1393,3.1396,3.1414,3.1415,3.1416,3.1453,3.1453,3.1454,3.1455,3.1502,3.1503,3.1505,3.1502,0,0,3.1509,3.151,0,0,0,0,0,0,0,0,3.1345,3.1349,3.1389,3.1391,3.1394,3.1429,3.1414,3.1445,3.1453,3.1431,3.1454,3.1455,3.1478,3.1481,3.1489,3.1505,3.1507,3.1509,3.151,3.1511,3.1511,0,0,0,0,0,0,0,3.1343,3.1347,3.1386,3.1389,3.1393,3.1403,3.1409,3.142,3.1451,3.1433,3.1436,3.1441,3.1479,3.1487,3.149,3.1508,3.1509,3.1511,3.1511,3.1512,3.153,3.153,0,0,0,0,0,0,3.1337,3.1345,3.1385,3.1388,3.1371,3.1404,3.141,3.1417,3.1451,3.1456,3.144,3.1442,3.1485,3.1488,3.1492,3.1495,3.1511,3.1512,3.1513,3.1531,3.153,3.153,0,0,0,0,0,0,3.1335,3.134,3.1383,3.1367,3.1374,3.1404,3.1412,3.1418,3.1425,3.1456,3.1462,3.1443,3.1485,3.149,3.1501,3.1497,3.1513,3.1514,3.1531,3.153,3.153,3.1498,0,0,0,0,0,0,3.1334,3.1339,3.1337,3.1367,3.1374,3.1389,3.1412,3.1418,3.1428,3.1431,3.146,3.1465,3.1486,3.1499,3.1502,3.1499,3.1515,3.1531,3.1531,3.153,3.15,3.1497,3.1494,0,0,0,0,0,3.1331,3.1325,3.1336,3.1341,3.1372,3.1389,3.1393,3.1417,3.1427,3.1427,3.1447,3.1464,3.1497,3.1499,3.1504,3.1501,3.1532,3.1531,3.153,3.1501,3.1497,3.1494,0,0,0,0,0,0,3.1292,3.1329,3.1342,3.1345,3.1364,3.1395,3.1394,3.1411,3.1427,3.143,3.1459,3.1466,3.1474,3.1489,3.1491,3.1504,3.1517,3.1517,3.1493,3.149,3.1487,3.1483,3.1516,0,0,0,0,0,3.1284,3.1294,3.1326,3.1325,3.1334,3.1363,3.1371,3.1388,3.1409,3.1417,3.1438,3.1458,3.1474,3.1482,3.1498,3.1503,3.1512,3.1504,3.1501,3.1498,3.1498,3.1506,3.1504,3.1527,3.1527,3.1527,0,0,3.1267,3.1288,3.1292,3.1318,3.1334,3.1346,3.1369,3.1378,3.1388,3.1418,3.143,3.1447,3.1472,3.1481,3.1486,3.1493,3.1494,3.1497,3.1495,3.1496,3.1505,3.1503,3.1501,3.1526,3.1527,3.1527,0,0,3.1242,3.1257,3.1261,3.1278,3.1303,3.1324,3.1325,3.1355,3.1367,3.138,3.1405,3.1418,3.1442,3.146,3.1472,3.146,3.1478,3.1465,3.1449,3.1457,3.1455,3.1454,3.1452,3.1451,3.1464,3.1464,3.1464,0,3.1217,3.1233,3.126,3.127,3.1282,3.1312,3.1318,3.1333,3.1362,3.1371,3.1379,3.1414,3.1433,3.1448,3.1446,3.1454,3.1459,3.1461,3.1453,3.1452,3.1451,3.145,3.1449,3.1463,3.1463,3.1463,3.1463,0,3.1204,3.1216,3.1216,3.1245,3.1257,3.1264,3.1295,3.1304,3.1322,3.1342,3.1358,3.1382,3.1405,3.141,3.1426,3.143,3.1434,3.1447,3.1461,3.1447,3.1447,3.1446,3.146,3.1461,3.1461,3.1462,0,0,3.1152,3.1199,3.1199,3.1214,3.1247,3.1258,3.1269,3.1292,3.1301,3.1322,3.1333,3.1356,3.1371,3.1385,3.1404,3.1411,3.1404,3.1424,3.1425,3.1421,3.1414,3.1404,3.1403,3.1417,3.1417,3.1417,3.1412,0,3.1133,3.1153,3.118,3.1192,3.1205,3.1236,3.1247,3.1269,3.129,3.1305,3.1328,3.1345,3.1361,3.1371,3.1379,3.1403,3.1403,3.1404,3.143,3.143,3.1423,3.1402,3.1391,3.1385,3.1412,3.1412,3.1412,0,3.1112,3.1133,3.1146,3.1183,3.119,3.1198,3.1224,3.1238,3.1266,3.1281,3.13,3.1322,3.1338,3.1351,3.1376,3.1376,3.1389,3.1403,3.1403,3.1407,3.142,3.1407,3.1384,3.1384,3.1412,3.1412,3.1412,0,3.1076,3.1108,3.1121,3.1133,3.1175,3.1181,3.1199,3.1227,3.1241,3.1265,3.1275,3.13,3.1314,3.1334,3.1364,3.137,3.1386,3.1401,3.1401,3.14,3.1402,3.1402,3.1383,3.1409,3.1409,3.1409,3.1409,0,3.1053,3.106,3.1106,3.1114,3.1125,3.1158,3.1168,3.1189,3.1215,3.123,3.1259,3.1272,3.131,3.1329,3.1353,3.1372,3.1377,3.1392,3.1398,3.1389,3.1388,3.1398,3.14,3.1409,3.1409,3.1409,3.1409,0,3.1013,3.1044,3.1061,3.11,3.1111,3.1117,3.1153,3.1163,3.1187,3.1206,3.1212,3.125,3.1274,3.1307,3.134,3.1357,3.1373,3.1382,3.1364,3.1368,3.1367,3.1367,3.1354,3.1356,3.1379,3.1379,3.1379,0,3.0996,3.1003,3.1045,3.1057,3.1075,3.1093,3.1109,3.1143,3.1158,3.1194,3.1201,3.1228,3.1251,3.129,3.1321,3.1349,3.1359,3.1353,3.1364,3.1356,3.1362,3.1362,3.1364,3.135,3.135,3.135,3.1349,0,3.0964,3.098,3.1001,3.1028,3.1046,3.1069,3.1094,3.1102,3.1143,3.1159,3.1185,3.1203,3.124,3.1267,3.13,3.1321,3.1343,3.1346,3.1348,3.134,3.1329,3.1337,3.1358,3.1346,3.1346,3.1347,3.1347,3.1347,3.0937,3.0947,3.0979,3.1002,3.1025,3.1048,3.1061,3.1088,3.111,3.1143,3.1163,3.1189,3.1222,3.1268,3.1289,3.1311,3.1319,3.1321,3.1322,3.1322,3.1321,3.1326,3.1317,3.1317,3.1317,3.1317,3.1318,0,3.0909,3.0932,3.0953,3.0988,3.1007,3.1027,3.1057,3.1072,3.1095,3.1123,3.1147,3.1179,3.1208,3.1243,3.1274,3.1286,3.1297,3.1293,3.1293,3.1298,3.131,3.1306,3.1284,3.1284,3.1284,3.1284,3.1284,3.1284,3.0896,3.0914,3.0935,3.0966,3.099,3.1015,3.1031,3.1054,3.1078,3.1113,3.1137,3.116,3.1193,3.1228,3.1256,3.1266,3.1277,3.127,3.1283,3.1294,3.1297,3.13,3.1296,3.1272,3.1272,3.127,3.127,3.1269]},{"header":{"parameterUnit":"m.s-1","parameterCategory":1,"la1":30.2991,"la2":30.254,"lo1":-89.0895,"lo2":-89.0444,"dy":0.0017,"dx":0.0017,"nx":28,"ny":28,"refTime":"2023-10-20T21:00:00:Z","depth":0,"parameterNumber":3,"parameterNumberName":"V-component_of_WINDS"},"data":[0,0,0,0,0,0,0,0,0,0,0,0,0,0,0,0,0,0,0,0,0,0,0,0,0,0,0,0,0,0,0,0,0,0,0,0,0,0,0,0,0,0,0,0,0,0,0,0,0,0,0,0,0,0,0,0,0,0,0.0653,0.0654,0,0.0772,0.0773,0.0775,0.0766,0.0765,0.0763,0.0761,0.0883,0.0888,0.0893,0,0,0,0,0,0,0,0,0,0,0,0,0,0.0417,0.0421,0.0653,0.0654,0.0656,0.0772,0.0773,0.0775,0.0767,0.0765,0.0762,0.076,0.0882,0.0887,0.0893,0,0,0,0,0,0,0,0,0,0,0,0,0,0.0526,0.0423,0.0653,0.0666,0.0668,0.0771,0.0773,0.0775,0.0767,0.0764,0.0762,0.0759,0.088,0.0887,0.0894,0.0992,0,0,0.0916,0.092,0,0,0,0,0,0,0,0,0.052,0.0535,0.0662,0.0665,0.0668,0.0752,0.0735,0.0848,0.0768,0.073,0.0761,0.0758,0.0842,0.0852,0.088,0.0998,0.1003,0.0917,0.0922,0.0925,0.0927,0,0,0,0,0,0,0,0.0512,0.0529,0.07,0.0664,0.0668,0.0665,0.0678,0.0756,0.0799,0.0733,0.0732,0.0747,0.0843,0.0873,0.0883,0.1005,0.0917,0.0923,0.0928,0.0931,0.1205,0.1207,0,0,0,0,0,0,0.0502,0.0523,0.0696,0.0704,0.0586,0.0671,0.0685,0.0727,0.0798,0.0806,0.0749,0.0746,0.0862,0.0874,0.0887,0.1003,0.0925,0.0932,0.0936,0.1202,0.1205,0.1208,0,0,0,0,0,0,0.0497,0.0517,0.0691,0.0613,0.0635,0.0678,0.0725,0.0731,0.0761,0.081,0.0818,0.0772,0.086,0.0877,0.0965,0.1007,0.0935,0.0942,0.1198,0.1203,0.1207,0.1238,0,0,0,0,0,0,0.049,0.0516,0.0554,0.0614,0.0639,0.0768,0.0728,0.0735,0.0774,0.0771,0.0834,0.0842,0.0859,0.0954,0.0972,0.1016,0.0947,0.1195,0.12,0.1205,0.1234,0.1243,0.1251,0,0,0,0,0,0.0482,0.0559,0.0556,0.0577,0.0688,0.0771,0.0785,0.0804,0.0778,0.0816,0.0846,0.084,0.1,0.0963,0.0984,0.103,0.1192,0.1199,0.1205,0.123,0.1241,0.1251,0,0,0,0,0,0,0.0504,0.0567,0.0565,0.0664,0.0712,0.0769,0.0818,0.0816,0.0872,0.0867,0.0888,0.0902,0.099,0.102,0.0977,0.1127,0.1093,0.1103,0.1104,0.1116,0.1124,0.1115,0.0953,0,0,0,0,0,0.052,0.0582,0.0634,0.0717,0.0741,0.0775,0.0812,0.0822,0.0872,0.0892,0.093,0.0979,0.104,0.108,0.1139,0.1238,0.125,0.128,0.1289,0.1296,0.1304,0.1355,0.1368,0.123,0.1229,0.1229,0,0,0.0554,0.0597,0.0635,0.0722,0.076,0.0822,0.0792,0.0861,0.0906,0.0903,0.0987,0.1017,0.1072,0.1165,0.1208,0.1192,0.1345,0.1304,0.1309,0.1314,0.1363,0.1376,0.1388,0.1234,0.1233,0.1232,0,0,0.0648,0.0688,0.0759,0.0797,0.0855,0.0877,0.0894,0.0952,0.097,0.1055,0.1053,0.1108,0.1214,0.1252,0.1286,0.1391,0.1386,0.141,0.1455,0.1505,0.1515,0.1525,0.156,0.1572,0.1419,0.1419,0.1419,0,0.0684,0.0778,0.0796,0.0864,0.0901,0.09,0.097,0.1007,0.1081,0.1106,0.1088,0.1218,0.1256,0.1356,0.1381,0.141,0.1428,0.1402,0.1513,0.1522,0.1532,0.1565,0.1578,0.1421,0.1421,0.1421,0.142,0,0.0817,0.0882,0.0932,0.1002,0.1045,0.1115,0.1142,0.1183,0.1189,0.1212,0.1297,0.1343,0.1409,0.1434,0.1441,0.1534,0.1522,0.1508,0.1474,0.1547,0.1578,0.1591,0.1424,0.1424,0.1423,0.1422,0,0,0.0928,0.1006,0.1024,0.1054,0.1116,0.1166,0.1235,0.1299,0.1332,0.1383,0.1439,0.1527,0.1513,0.1551,0.1562,0.1606,0.1682,0.1586,0.1587,0.1599,0.1783,0.1792,0.1806,0.1679,0.1682,0.1684,0.1778,0,0.1026,0.1146,0.1163,0.1269,0.1327,0.1326,0.1385,0.1428,0.1452,0.1504,0.153,0.1591,0.157,0.1592,0.1635,0.1664,0.1719,0.1657,0.1729,0.1732,0.1713,0.1823,0.1833,0.1919,0.179,0.1792,0.1794,0,0.1156,0.1209,0.132,0.1371,0.1396,0.1449,0.1507,0.1558,0.1607,0.162,0.1661,0.1666,0.1735,0.1698,0.1792,0.1749,0.178,0.1798,0.1802,0.1807,0.1766,0.1829,0.1948,0.1959,0.1814,0.1812,0.1811,0,0.1222,0.1321,0.1399,0.1425,0.1488,0.1524,0.1552,0.1599,0.1635,0.1686,0.1709,0.1768,0.18,0.1845,0.1865,0.1837,0.1955,0.1922,0.1966,0.1966,0.199,0.1988,0.2112,0.2014,0.2014,0.2014,0.2013,0,0.1328,0.1395,0.1429,0.1477,0.1551,0.157,0.1642,0.1669,0.171,0.1761,0.1765,0.1813,0.1838,0.1889,0.1906,0.1978,0.1994,0.2005,0.2008,0.2003,0.2001,0.2022,0.2015,0.2017,0.2016,0.2016,0.2015,0,0.1413,0.1439,0.1524,0.1575,0.159,0.1642,0.1686,0.1731,0.1753,0.1819,0.1835,0.187,0.193,0.1955,0.203,0.2041,0.2123,0.2123,0.2106,0.2106,0.2149,0.2143,0.2289,0.2308,0.22,0.2201,0.2201,0,0.1478,0.1529,0.1586,0.162,0.1649,0.1705,0.1741,0.1761,0.1799,0.1857,0.1895,0.1955,0.2004,0.2101,0.2132,0.2189,0.2188,0.2235,0.2197,0.2189,0.2185,0.218,0.2184,0.2242,0.2243,0.2244,0.2244,0,0.1589,0.1598,0.1651,0.1707,0.175,0.1796,0.184,0.1868,0.1894,0.1936,0.1998,0.2036,0.2111,0.217,0.2227,0.2255,0.2253,0.2256,0.2269,0.2264,0.225,0.2255,0.2123,0.2253,0.2252,0.2251,0.2251,0.225,0.1664,0.1708,0.1753,0.1811,0.1846,0.1887,0.1931,0.1958,0.2009,0.2071,0.208,0.2145,0.219,0.2267,0.2296,0.2346,0.2334,0.2354,0.2358,0.2362,0.2363,0.2244,0.2357,0.2357,0.2357,0.2357,0.2357,0,0.1772,0.18,0.1853,0.1914,0.1959,0.1953,0.2001,0.2039,0.2096,0.2138,0.2185,0.2254,0.2311,0.2346,0.2402,0.2435,0.2435,0.2449,0.2445,0.2451,0.2372,0.2354,0.2447,0.2447,0.2447,0.2447,0.2447,0.2447,0.1833,0.1906,0.192,0.201,0.2039,0.2102,0.2129,0.2166,0.2199,0.2275,0.2322,0.2344,0.2383,0.2441,0.2492,0.2501,0.252,0.2534,0.2541,0.2467,0.2457,0.2448,0.2431,0.2539,0.2539,0.2615,0.2616,0.2617]}]]